Weather History for Calgary, AB

Change the Weather History Date:

Tuesday, March 5, 2013

  Actual Average Record
Temperature  
Mean Temperature 14 °F -  
Max Temperature 19 °F 40 °F 62 °F (2005)
Min Temperature 10 °F 19 °F -18 °F (2002)
Degree Days  
Heating Degree Days 50    
Moisture  
Dew Point 11 °F    
Average Humidity 84    
Maximum Humidity 93    
Minimum Humidity 62    
Precipitation  
Precipitation 0.00 in 0.02 in - ()
Sea Level Pressure  
Sea Level Pressure 30.31 in    
Wind  
Wind Speed 8 mph ()    
Max Wind Speed 13 mph    
Max Gust Speed 18 mph    
Visibility 5.0 miles    
Events Snow    
Averages and records for this station are not official NWS values.
T = Trace of Precipitation, MM = Missing Value Source: Averaged Metar Reports

Daily Weather History Graph

Daily Weather History Graph

Search for Another Location

Airport:

Trip Planner

Search our weather history database for the weather conditions in past years. The results will help you decide how hot, cold, wet, or windy it might be!

Date:

Astronomy

Mar. 05, 2013 Rise Set
Actual Time 7:11 AM MST 6:24 PM MST
Civil Twilight 6:38 AM MST 6:57 PM MST
Nautical Twilight 6:00 AM MST 7:35 PM MST
Astronomical Twilight 5:21 AM MST 8:14 PM MST
Moon 2:57 AM MST (3/5) 11:37 AM MST (3/5)
Length of Visible Light 12h 19m
Length of Day
11h 13m
Last Quarter, 40% of the Moon is Illuminated
Mar 5
Last Quarter
Mar 11
New
Mar 19
First Quarter
Mar 27
Full
Apr 2
Last Quarter

Hourly Weather History & Observations

Time (MST) Temp. Windchill Dew Point Humidity Pressure Visibility Wind Dir Wind Speed Gust Speed Precip Events Conditions
12:03 AM 15.8 °F 5.1 °F 14.0 °F 93% 30.40 in 5.0 mi SE 8.1 mph - N/A Snow Light Snow
1:00 AM 14.0 °F 2.9 °F 12.2 °F 93% 30.40 in 4.0 mi SE 8.1 mph - N/A Snow Light Snow
2:00 AM 15.8 °F 4.2 °F 12.2 °F 86% 30.40 in 4.0 mi South 9.2 mph - N/A Snow Light Snow
3:00 AM 14.0 °F 2.0 °F 12.2 °F 93% 30.40 in 2.5 mi South 9.2 mph - N/A Snow Light Snow
4:00 AM 15.8 °F 2.1 °F 12.2 °F 86% 30.39 in 4.0 mi South 12.7 mph - N/A   Overcast
5:00 AM 17 °F - 11 °F 69% 30.39 in 5 mi SSE 11.5 mph - -   Mist
5:00 AM 15.8 °F 2.7 °F 12.2 °F 86% 30.38 in 5.0 mi SSE 11.5 mph - N/A   Overcast
5:47 AM 17.6 °F 6.4 °F 12.2 °F 79% 30.38 in 5.0 mi SSE 9.2 mph - N/A Snow Light Snow
6:00 AM 17.6 °F 5.7 °F 12.2 °F 79% 30.37 in 5.0 mi South 10.4 mph 18.4 mph N/A Snow Light Snow
7:00 AM 17.6 °F 7.3 °F 12.2 °F 79% 30.38 in 7.0 mi South 8.1 mph - N/A Snow Light Snow
8:00 AM 17.6 °F 7.3 °F 12.2 °F 79% 30.38 in 7.0 mi SSE 8.1 mph - N/A Snow Light Snow
9:00 AM 17.6 °F 9.3 °F 12.2 °F 79% 30.38 in 7.0 mi SSE 5.8 mph - N/A Snow Light Snow
9:39 AM 17.6 °F 9.3 °F 12.2 °F 79% 30.37 in 10.0 mi SE 5.8 mph - N/A   Mostly Cloudy
10:00 AM 17.6 °F 9.3 °F 12.2 °F 79% 30.36 in 20.0 mi SE 5.8 mph - N/A   Mostly Cloudy
11:00 AM 19 °F - 11 °F 62% 30.34 in 25 mi SE 6.9 mph - -   Partly Cloudy
11:00 AM 19.4 °F 11.5 °F 12.2 °F 74% 30.34 in 25.0 mi SE 5.8 mph - N/A   Clear
12:00 PM 19.4 °F 9.5 °F 12.2 °F 74% 30.33 in 30.0 mi East 8.1 mph - N/A   Partly Cloudy
1:00 PM 17.6 °F 6.4 °F 10.4 °F 73% 30.33 in 30.0 mi ESE 9.2 mph - N/A   Clear
2:00 PM 14.0 °F 2.9 °F 10.4 °F 86% 30.31 in 30.0 mi ESE 8.1 mph - N/A   Partly Cloudy
2:46 PM 14.0 °F 1.2 °F 10.4 °F 86% 30.30 in 5.0 mi SE 10.4 mph - N/A   Mostly Cloudy
3:00 PM 15.8 °F 2.7 °F 12.2 °F 86% 30.30 in 4.0 mi SSE 11.5 mph - N/A   Mostly Cloudy
3:12 PM 14.0 °F 0.5 °F 12.2 °F 93% 30.29 in 5.0 mi SE 11.5 mph - N/A   Mostly Cloudy
3:49 PM 14.0 °F -0.2 °F 10.4 °F 86% 30.29 in 5.0 mi SSE 12.7 mph - N/A   Mostly Cloudy
4:00 PM 15.8 °F 5.1 °F 12.2 °F 86% 30.28 in 4.0 mi SSE 8.1 mph - N/A   Mostly Cloudy
4:25 PM 14.0 °F 0.5 °F 12.2 °F 93% 30.27 in 4.0 mi SSE 11.5 mph - N/A   Mostly Cloudy
5:00 PM 15 °F - 11 °F 79% 30.26 in 5 mi SE 6.9 mph - -   Partly Cloudy
5:00 PM 14.0 °F 2.9 °F 12.2 °F 93% 30.26 in 5.0 mi SE 8.1 mph - N/A   Mostly Cloudy
5:28 PM 14.0 °F 0.5 °F 10.4 °F 86% 30.25 in 5.0 mi SSE 11.5 mph - N/A   Mostly Cloudy
6:00 PM 12.2 °F -1.8 °F 10.4 °F 92% 30.25 in 5.0 mi SSE 11.5 mph - N/A   Mostly Cloudy
6:25 PM 10.4 °F -2.4 °F 8.6 °F 92% 30.25 in 3.0 mi SSE 9.2 mph - N/A   Scattered Clouds
6:34 PM 10.4 °F -2.4 °F 8.6 °F 92% 30.25 in 2.0 mi SSE 9.2 mph - N/A Snow Light Snow Grains
7:00 PM 10.4 °F -1.5 °F 8.6 °F 92% 30.24 in 2.0 mi SSE 8.1 mph - N/A Snow Light Snow Grains
7:15 PM 12.2 °F -1.0 °F 8.6 °F 85% 30.24 in 2.0 mi SSE 10.4 mph - N/A   Mostly Cloudy
8:00 PM 12.2 °F -1.0 °F 8.6 °F 85% 30.24 in 1.5 mi South 10.4 mph - N/A Snow Light Snow
9:00 PM 14.0 °F 1.2 °F 12.2 °F 93% 30.22 in 2.5 mi South 10.4 mph - N/A Snow Light Snow
9:54 PM 12.2 °F 1.7 °F 8.6 °F 85% 30.22 in 4.0 mi SSE 6.9 mph - N/A   Mostly Cloudy
10:00 PM 12.2 °F 2.9 °F 8.6 °F 85% 30.22 in 5.0 mi SSE 5.8 mph - N/A   Mostly Cloudy
11:00 PM 14 °F - 11 °F 81% 30.19 in 5 mi SSE 8.1 mph - -   Mist
11:00 PM 14.0 °F 2.9 °F 10.4 °F 86% 30.19 in 5.0 mi SSE 8.1 mph - N/A   Mostly Cloudy
11:40 PM 14.0 °F 3.9 °F 12.2 °F 93% 30.18 in 5.0 mi SSE 6.9 mph - N/A   Overcast